GW1618 Weather Reports


Display with metric or nautical units.
time (UTC)temp
F
wind
direction
speed
MPH
gust
MPH
rain 1hr
in
rain 24hr
in
rain mn
in
humidity
%
barometer
mb
20260503223602 79 4 5.0 7.0 0.00 0.00 0.00 35 1009.6
20260503223101 79 355 5.0 7.0 0.00 0.00 0.00 35 1009.8
20260503222602 78 359 6.0 9.0 0.00 0.00 0.00 36 1009.8
20260503222355 78 9 6.0 9.0 0.00 0.00 0.00 37 1010.0
20260503221557 78 4 6.0 9.0 0.00 0.00 0.00 36 1010.0
20260503221050 78 9 6.0 9.0 0.00 0.00 0.00 36 1010.0
20260503220543 78 19 6.0 10.0 0.00 0.00 0.00 37 1010.2
20260503220042 77 348 6.0 10.0 0.00 0.00 0.00 38 1010.2
20260503215911 77 4 6.0 9.0 0.00 0.00 0.00 37 1010.2
20260503214828 77 342 8.0 11.0 0.00 0.00 0.00 38 1010.3
20260503214036 76 9 8.0 11.0 0.00 0.00 0.00 39 1010.3
20260503213535 76 9 7.0 11.0 0.00 0.00 0.00 39 1010.5
20260503213034 77 9 6.0 10.0 0.00 0.00 0.00 40 1010.5
20260503212535 76 15 6.0 10.0 0.00 0.00 0.00 41 1010.5
20260503212034 76 353 7.0 11.0 0.00 0.00 0.00 42 1010.7
20260503211532 76 25 7.0 11.0 0.00 0.00 0.00 40 1010.7
20260503211318 76 359 7.0 11.0 0.00 0.00 0.00 39 1010.7
20260503210822 76 346 6.0 11.0 0.00 0.00 0.00 40 1010.8
20260503210029 76 30 7.0 11.0 0.00 0.00 0.00 41 1010.8
20260503205529 76 9 6.0 11.0 0.00 0.00 0.00 41 1010.8
20260503205030 75 345 6.0 10.0 0.00 0.00 0.00 44 1011.1
20260503204533 75 354 7.0 10.0 0.00 0.00 0.00 42 1011.1
20260503204047 75 359 7.0 11.0 0.00 0.00 0.00 42 1011.1
20260503203015 74 33 7.0 11.0 0.00 0.00 0.00 42 1011.3
20260503202804 75 9 6.0 10.0 0.00 0.00 0.00 44 1011.3
20260503202011 74 359 6.0 10.0 0.00 0.00 0.00 43 1011.4
20260503201510 74 344 6.0 10.0 0.00 0.00 0.00 45 1011.4
20260503201010 74 4 6.0 10.0 0.00 0.00 0.00 44 1011.4
20260503200510 73 4 5.0 9.0 0.00 0.00 0.00 44 1011.7
20260503200010 73 9 5.0 8.0 0.00 0.00 0.00 45 1011.7
20260503195504 73 9 6.0 9.0 0.00 0.00 0.00 44 1011.7
20260503195022 73 348 6.0 9.0 0.00 0.00 0.00 46 1011.8
20260503194004 73 15 6.0 9.0 0.00 0.00 0.00 45 1011.8
20260503193502 72 19 5.0 9.0 0.00 0.00 0.00 46 1012.0
20260503193003 72 9 5.0 9.0 0.00 0.00 0.00 46 1012.0
20260503192001 71 15 6.0 7.0 0.00 0.00 0.00 47 1012.3
20260503191502 71 333 6.0 9.0 0.00 0.00 0.00 47 1012.3
20260503191006 71 342 5.0 9.0 0.00 0.00 0.00 47 1012.3
20260503190506 70 352 6.0 10.0 0.00 0.00 0.00 48 1012.3
20260503190002 70 338 6.0 10.0 0.00 0.00 0.00 48 1012.3
20260503185501 70 4 6.0 11.0 0.00 0.00 0.00 49 1012.3
20260503184955 69 23 6.0 11.0 0.00 0.00 0.00 49 1012.6
20260503184731 69 350 6.0 11.0 0.00 0.00 0.00 49 1012.6
20260503183948 69 9 7.0 11.0 0.00 0.00 0.00 50 1012.6
20260503183448 68 9 6.0 11.0 0.00 0.00 0.00 51 1012.7
20260503182950 68 333 6.0 10.0 0.00 0.00 0.00 51 1012.7
20260503182729 68 16 6.0 10.0 0.00 0.00 0.00 52 1012.7
20260503181947 68 14 6.0 10.0 0.00 0.00 0.00 53 1012.8
20260503181447 67 343 6.0 10.0 0.00 0.00 0.00 53 1012.8
20260503180946 67 359 5.0 10.0 0.00 0.00 0.00 53 1012.8
20260503180729 67 23 6.0 9.0 0.00 0.00 0.00 52 1012.9
20260503175944 67 23 5.0 9.0 0.00 0.00 0.00 52 1012.9
20260503175438 67 4 5.0 10.0 0.00 0.00 0.00 53 1012.9
20260503174937 66 352 5.0 10.0 0.00 0.00 0.00 53 1012.9
20260503174436 66 350 5.0 7.0 0.00 0.00 0.00 54 1012.9
20260503174218 65 14 6.0 7.0 0.00 0.00 0.00 54 1012.9
20260503173431 65 359 6.0 10.0 0.00 0.00 0.00 56 1013.0
20260503173216 65 359 7.0 11.0 0.00 0.00 0.00 56 1013.0
20260503172433 65 347 6.0 11.0 0.00 0.00 0.00 58 1013.0
20260503171929 65 9 5.0 10.0 0.00 0.00 0.00 59 1013.1
20260503171431 64 354 6.0 10.0 0.00 0.00 0.00 59 1013.1
20260503170929 64 9 5.0 10.0 0.00 0.00 0.00 59 1013.1
20260503170429 64 15 5.0 10.0 0.00 0.00 0.00 60 1013.2
20260503160146 57 18 3.0 5.0 0.00 0.00 0.00 80 1013.4
20260503150337 54 9 4.0 6.0 0.00 0.00 0.00 87 1013.4
20260503131235 51 17 1.0 3.0 0.00 0.00 0.00 88 1012.9
20260503130731 51 9 1.0 2.0 0.00 0.00 0.00 88 1012.9
20260503130230 51 9 1.0 3.0 0.00 0.00 0.00 88 1012.9
20260503120131 52 9 1.0 3.0 0.00 0.00 0.00 86 1013.4
20260503110601 52 53 0.0 1.0 0.00 0.00 0.00 85 1013.4
20260503090436 55 53 1.0 2.0 0.00 0.00 0.00 79 1013.6
20260503080843 56 26 1.0 3.0 0.00 0.00 0.00 74 1013.6
20260503080345 56 26 1.0 3.0 0.00 0.00 0.00 75 1013.6
20260503080123 56 9 2.0 3.0 0.00 0.00 0.00 74 1013.6
20260503072831 57 335 0.0 2.0 0.00 0.00 0.00 70 1013.6
20260503072328 57 335 1.0 2.0 0.00 0.00 0.00 70 1013.6
20260503071829 57 335 0.0 2.0 0.00 0.00 0.00 70 1013.5
20260503071326 58 335 0.0 1.0 0.00 0.00 0.00 70 1013.5
20260503070817 58 335 0.0 1.0 0.00 0.00 0.00 69 1013.5
20260503070311 58 335 0.0 1.0 0.00 0.00 0.00 68 1013.4
20260503060256 61 310 1.0 2.0 0.00 0.00 0.00 59 1013.4
20260503054750 62 219 1.0 3.0 0.00 0.00 0.00 60 1013.3
20260503054236 62 240 2.0 4.0 0.00 0.00 0.00 59 1013.3
20260503053736 63 225 2.0 4.0 0.00 0.00 0.00 59 1013.3
20260503053236 63 247 2.0 4.0 0.00 0.00 0.00 58 1013.4
20260503052732 63 181 2.0 4.0 0.00 0.00 0.00 58 1013.4
20260503052235 63 211 2.0 4.0 0.00 0.00 0.00 57 1013.4
20260503051733 64 213 2.0 4.0 0.00 0.00 0.00 60 1013.3
20260503051230 65 238 1.0 2.0 0.00 0.00 0.00 59 1013.3
20260503050714 65 221 1.0 3.0 0.00 0.00 0.00 56 1013.3
20260503050206 66 225 1.0 3.0 0.00 0.00 0.00 53 1013.3
20260503045705 66 348 1.0 3.0 0.00 0.00 0.00 45 1013.3
20260503045450 66 331 2.0 3.0 0.00 0.00 0.00 45 1013.3
20260503044708 67 326 1.0 3.0 0.00 0.00 0.00 47 1013.0
20260503044202 67 38 1.0 3.0 0.00 0.00 0.00 43 1013.0
20260503043943 67 84 1.0 3.0 0.00 0.00 0.00 45 1013.0
20260503043451 68 174 1.0 3.0 0.00 0.00 0.00 47 1012.9
20260503042703 68 135 2.0 4.0 0.00 0.00 0.00 44 1012.9
20260503042446 68 132 2.0 5.0 0.00 0.00 0.00 43 1012.9
20260503041952 68 113 1.0 5.0 0.00 0.00 0.00 43 1012.8
20260503041202 68 70 1.0 4.0 0.00 0.00 0.00 43 1012.8
20260503040702 68 52 1.0 4.0 0.00 0.00 0.00 43 1012.8
20260503040204 69 19 1.0 3.0 0.00 0.00 0.00 44 1012.4
20260503035703 69 74 1.0 4.0 0.00 0.00 0.00 42 1012.4
20260503035202 69 81 1.0 4.0 0.00 0.00 0.00 42 1012.4
20260503034703 69 103 2.0 7.0 0.00 0.00 0.00 42 1012.3
20260503034205 69 75 3.0 7.0 0.00 0.00 0.00 42 1012.3
20260503033702 70 70 3.0 5.0 0.00 0.00 0.00 42 1012.3
20260503033201 70 70 4.0 7.0 0.00 0.00 0.00 41 1012.3
20260503032950 70 78 4.0 7.0 0.00 0.00 0.00 41 1012.3
20260503032159 70 62 4.0 7.0 0.00 0.00 0.00 41 1012.3
20260503031701 71 126 4.0 7.0 0.00 0.00 0.00 40 1012.0
20260503031159 71 89 4.0 7.0 0.00 0.00 0.00 41 1012.0
20260503030700 71 88 4.0 10.0 0.00 0.00 0.00 41 1012.0
20260503030158 71 117 5.0 10.0 0.00 0.00 0.00 41 1011.8
20260503025707 71 51 6.0 11.0 0.00 0.00 0.00 40 1011.8
20260503025204 72 83 5.0 11.0 0.00 0.00 0.00 40 1011.8
20260503024713 72 46 4.0 10.0 0.00 0.00 0.00 41 1011.8
20260503023654 72 96 5.0 9.0 0.00 0.00 0.00 40 1011.8
20260503022634 72 53 5.0 10.0 0.00 0.00 0.00 40 1011.7
20260503022135 73 76 6.0 11.0 0.00 0.00 0.00 39 1011.7
20260503021630 73 81 7.0 13.0 0.00 0.00 0.00 39 1011.7
20260503021130 73 112 7.0 13.0 0.00 0.00 0.00 39 1011.7
20260503020633 73 101 6.0 11.0 0.00 0.00 0.00 38 1011.7
20260503020140 73 89 5.0 11.0 0.00 0.00 0.00 38 1011.6
20260503015645 73 134 6.0 11.0 0.00 0.00 0.00 38 1011.6
20260503015127 73 119 5.0 11.0 0.00 0.00 0.00 38 1011.6
20260503014615 73 109 6.0 11.0 0.00 0.00 0.00 39 1011.6
20260503014109 74 108 6.0 11.0 0.00 0.00 0.00 38 1011.6
20260503013609 74 109 5.0 11.0 0.00 0.00 0.00 38 1011.6
20260503013111 74 80 5.0 11.0 0.00 0.00 0.00 40 1011.7
20260503012613 74 78 5.0 10.0 0.00 0.00 0.00 39 1011.7
20260503012106 74 112 5.0 10.0 0.00 0.00 0.00 39 1011.7
20260503011611 74 117 6.0 12.0 0.00 0.00 0.00 40 1011.6
20260503011110 74 80 6.0 12.0 0.00 0.00 0.00 40 1011.6
20260503010606 74 73 5.0 9.0 0.00 0.00 0.00 40 1011.6
20260503010348 74 84 5.0 11.0 0.00 0.00 0.00 40 1011.8
20260503005601 74 41 6.0 11.0 0.00 0.00 0.00 40 1011.8
20260503005102 74 84 6.0 11.0 0.00 0.00 0.00 39 1011.8
20260503004602 74 107 5.0 11.0 0.00 0.00 0.00 39 1011.8
20260503004100 74 96 5.0 9.0 0.00 0.00 0.00 39 1011.8
20260503003604 74 111 4.0 8.0 0.00 0.00 0.00 40 1011.8
20260503003105 74 145 4.0 8.0 0.00 0.00 0.00 39 1011.8
20260503002605 73 104 5.0 10.0 0.00 0.00 0.00 41 1011.8
20260503002100 73 100 7.0 11.0 0.00 0.00 0.00 41 1011.8
20260503001845 73 67 6.0 11.0 0.00 0.00 0.00 41 1011.9
20260503001102 73 98 6.0 11.0 0.00 0.00 0.00 42 1011.9
20260503000602 73 70 6.0 10.0 0.00 0.00 0.00 42 1011.9
20260503000103 73 63 5.0 10.0 0.00 0.00 0.00 42 1012.0
20260502235603 73 48 5.0 10.0 0.00 0.00 0.00 43 1012.0
20260502235102 73 88 7.0 12.0 0.00 0.00 0.00 43 1012.3
20260502234606 73 65 6.0 12.0 0.00 0.00 0.00 43 1012.3
20260502234101 73 73 5.0 9.0 0.00 0.00 0.00 45 1012.3
20260502233850 73 115 4.0 9.0 0.00 0.00 0.00 44 1012.6
20260502232545 73 55 4.0 9.0 0.00 0.00 0.00 45 1012.6
20260502232042 73 121 6.0 11.0 0.00 0.00 0.00 48 1012.7
20260502231538 72 4 7.0 11.0 0.00 0.00 0.00 48 1012.7
20260502231038 71 351 6.0 11.0 0.00 0.00 0.00 50 1012.7
20260502230822 71 353 5.0 8.0 0.00 0.00 0.00 52 1012.9
20260502230039 71 359 6.0 9.0 0.00 0.00 0.00 50 1012.9
20260502225540 71 4 5.0 9.0 0.00 0.00 0.00 51 1012.9
20260502225039 71 15 4.0 7.0 0.00 0.00 0.00 51 1013.0
20260502224538 71 352 4.0 7.0 0.00 0.00 0.00 51 1013.0
20260502224038 71 340 5.0 9.0 0.00 0.00 0.00 52 1013.0